Weather in Kiryushkino

Russia / Orenburg Oblast     53°34′36″N   52°18′15″E
temp.,
°C
wind,
m/s
gust,
m/s
humid.,
%
clouds,
%
prec.,
mm/h
press.,
hPa
HPBL,
m
1 march, mon
mon123:00−15nnw349598 0.2 101275
02:00−17nnw239582 0.0 101422
05:00−19nw229660 0.0 101520
08:00−20nw229725 0.0 101720
11:00−18nw249412 0.0 1019168
14:00−15nw348947 0.0 1020354
17:00−15wnw469273 0.0 1021427
20:00−20wnw339883 0.0 102125
2 march, tue
tue223:00−21w239942 0.0 102220
02:00−21sw2310054 0.0 102022
05:00−20ssw3510067 0.0 101889
08:00−15ssw41196100 0.0 1014302
11:00−11sw61294100 0.7 1012468
14:00−8sw71394100 0.7 1008617
17:00−4sw71495100 1.5 1005681
20:00−3sw71496100 1.2 1002672
3 march, wed
wed323:00−1sw61397100 2.6 1001581
02:00−1wsw499699 0.5 1000359
05:00−5w369792 0.5 1001182
08:00−10w239771 0.0 100222
11:00−7w359676 0.0 1003172
14:00−5w359695 0.1 1003284
17:00−4w469595 0.1 1004406
20:00−5wsw3796100 0.1 1004259
4 march, thu
thu423:00−10wnw349491 0.3 100669
02:00−10wnw489665 0.1 1006172
05:00−13w369770 0.1 100890
08:00−14wsw479882 0.0 1008104
11:00−11sw599587 0.1 1009286
14:00−7sw6109498 0.1 1008391
17:00−6sw8119299 0.2 1007625
20:00−4sw71594100 0.3 1004903
5 march, fri
fri523:00−2sw101795100 1.4 1003929
02:00−1sw111795100 1.8 10001005
05:00−1sw111892100 2.3 9991035
08:00−2wsw111795100 0.6 1000936
11:00−1w101496100 1.2 10031044
14:00−3wnw6118081 0.1 1007694
17:00−5w478655 0.1 1010429
20:00−11w239224 0.0 101221